EW4337 Weather Reports


Display with metric or nautical units.
time (UTC)temp
F
wind
direction
speed
MPH
gust
MPH
rain 1hr
in
rain 24hr
in
rain mn
in
humidity
%
barometer
mb
20180821234704 61 165 0.0 0.0 0.00 0.00 0.00 91 1019.2
20180821233704 61 165 0.0 0.0 0.00 0.00 0.00 91 1019.1
20180821232704 62 165 0.0 0.0 0.00 0.00 0.00 90 1019.2
20180821231704 62 165 0.0 0.0 0.00 0.00 0.00 90 1019.2
20180821230704 62 165 0.0 0.0 0.00 0.00 0.00 90 1019.2
20180821225704 62 165 0.0 0.0 0.00 0.00 0.00 90 1019.2
20180821224704 62 165 0.0 0.0 0.00 0.00 0.00 90 1019.2
20180821223703 62 165 0.0 0.0 0.00 0.00 0.00 89 1019.2
20180821222704 63 165 0.0 0.0 0.00 0.00 0.00 89 1019.2
20180821221704 63 165 0.0 0.0 0.00 0.00 0.00 89 1019.2
20180821220704 63 165 0.0 0.0 0.00 0.00 0.00 88 1019.2
20180821215704 63 165 0.0 0.0 0.00 0.00 0.00 88 1019.3
20180821214704 64 165 0.0 0.0 0.00 0.00 0.00 87 1019.3
20180821213704 64 165 0.0 0.0 0.00 0.00 0.00 87 1019.3
20180821212704 64 165 0.0 0.0 0.00 0.00 0.00 86 1019.3
20180821211704 64 165 0.0 0.0 0.00 0.00 0.00 86 1019.3
20180821210705 64 165 0.0 0.0 0.00 0.00 0.00 85 1019.3
20180821205703 65 165 0.0 0.0 0.00 0.00 0.00 85 1019.2
20180821204703 65 165 0.0 0.0 0.00 0.00 0.00 84 1019.3
20180821203703 65 165 0.0 0.0 0.00 0.00 0.00 84 1019.3
20180821202703 65 165 0.0 0.0 0.00 0.00 0.00 83 1019.3
20180821201703 66 165 0.0 0.0 0.00 0.00 0.00 82 1019.3
20180821200703 66 165 0.0 0.0 0.00 0.00 0.00 82 1019.4
20180821195703 67 165 0.0 0.0 0.00 0.00 0.00 81 1019.4
20180821194703 67 165 0.0 0.0 0.00 0.00 0.00 79 1019.4
20180821193703 68 165 0.0 0.0 0.00 0.00 0.00 78 1019.3
20180821192703 68 165 0.0 0.0 0.00 0.00 0.00 77 1019.2
20180821191703 69 165 0.0 0.0 0.00 0.00 0.00 76 1019.1
20180821190703 70 165 0.0 0.0 0.00 0.00 0.00 74 1019.2
20180821185703 71 165 0.0 0.0 0.00 0.00 0.00 73 1019.1
20180821184703 72 165 0.0 0.0 0.00 0.00 0.00 72 1019.0
20180821183703 72 165 0.0 0.0 0.00 0.00 0.00 70 1019.1
20180821182703 73 165 0.0 0.0 0.00 0.00 0.00 69 1019.0
20180821181703 73 165 0.0 0.0 0.00 0.00 0.00 68 1019.0
20180821180703 74 165 0.0 0.0 0.00 0.00 0.00 66 1019.0
20180821175703 74 165 0.0 0.0 0.00 0.00 0.00 65 1019.0
20180821174704 74 165 0.0 0.0 0.00 0.00 0.00 64 1019.0
20180821173703 75 165 0.0 3.0 0.00 0.00 0.00 64 1019.0
20180821172704 75 151 1.0 3.0 0.00 0.00 0.00 64 1019.1
20180821171704 75 193 0.0 2.0 0.00 0.00 0.00 61 1019.1
20180821170703 76 173 0.0 2.0 0.00 0.00 0.00 61 1019.1
20180821165704 76 181 0.0 3.0 0.00 0.00 0.00 61 1019.2
20180821164704 76 135 0.0 3.0 0.00 0.00 0.00 61 1019.3
20180821163703 76 132 0.0 3.0 0.00 0.00 0.00 60 1019.4
20180821162704 76 173 1.0 5.0 0.00 0.00 0.00 57 1019.5
20180821161704 76 199 1.0 5.0 0.00 0.00 0.00 58 1019.6
20180821160704 77 156 1.0 5.0 0.00 0.00 0.00 55 1019.7
20180821155703 77 135 1.0 5.0 0.00 0.00 0.00 57 1019.7
20180821154703 77 200 0.0 7.0 0.00 0.00 0.00 58 1019.8
20180821153704 77 217 0.0 7.0 0.00 0.00 0.00 60 1019.9
20180821152704 78 202 2.0 8.0 0.00 0.00 0.00 58 1020.0
20180821151703 76 205 0.0 6.0 0.00 0.00 0.00 60 1020.1
20180821150704 76 194 0.0 5.0 0.00 0.00 0.00 61 1020.1
20180821145703 76 174 1.0 6.0 0.00 0.00 0.00 63 1020.1
20180821144704 76 177 0.0 10.0 0.00 0.00 0.00 63 1020.2
20180821143703 76 187 0.0 5.0 0.00 0.00 0.00 64 1020.3
20180821142704 76 189 2.0 10.0 0.00 0.00 0.00 64 1020.3
20180821141703 77 177 2.0 12.0 0.00 0.00 0.00 61 1020.3
20180821140704 79 154 7.0 14.0 0.00 0.00 0.00 58 1020.3
20180821135704 80 192 5.0 12.0 0.00 0.00 0.00 56 1020.2
20180821134704 78 200 0.0 6.0 0.00 0.00 0.00 60 1020.2
20180821133704 78 146 0.0 0.0 0.00 0.00 0.00 58 1020.3
20180821132704 79 270 1.0 6.0 0.00 0.00 0.00 56 1020.3
20180821131704 80 234 2.0 10.0 0.00 0.00 0.00 56 1020.4
20180821130704 78 165 1.0 9.0 0.00 0.00 0.00 59 1020.4
20180821125705 77 262 0.0 0.0 0.00 0.00 0.00 59 1020.5
20180821124705 78 211 0.0 0.0 0.00 0.00 0.00 57 1020.6
20180821123704 78 153 1.0 12.0 0.00 0.00 0.00 60 1020.6
20180821122704 78 158 3.0 9.0 0.00 0.00 0.00 57 1020.7
20180821121704 78 173 0.0 12.0 0.00 0.00 0.00 57 1020.7
20180821120705 79 122 0.0 0.0 0.00 0.00 0.00 57 1020.7
20180821115704 79 173 0.0 1.0 0.00 0.00 0.00 58 1020.8
20180821114704 78 170 0.0 7.0 0.00 0.00 0.00 58 1020.8
20180821113705 78 181 1.0 10.0 0.00 0.00 0.00 60 1020.8
20180821112704 77 187 1.0 6.0 0.00 0.00 0.00 62 1021.0
20180821111704 76 150 0.0 8.0 0.00 0.00 0.00 64 1021.0
20180821110704 76 163 0.0 6.0 0.00 0.00 0.00 64 1021.1
20180821105705 74 241 1.0 3.0 0.00 0.00 0.00 67 1021.1
20180821104704 75 262 0.0 5.0 0.00 0.00 0.00 65 1021.1
20180821103704 76 260 1.0 6.0 0.00 0.00 0.00 66 1021.2
20180821102705 75 230 0.0 3.0 0.00 0.00 0.00 64 1021.3
20180821101704 75 174 0.0 7.0 0.00 0.00 0.00 68 1021.3
20180821100705 74 128 1.0 8.0 0.00 0.00 0.00 68 1021.3
20180821095703 74 194 0.0 5.0 0.00 0.00 0.00 69 1021.4
20180821094703 75 106 1.0 8.0 0.00 0.00 0.00 69 1021.5
20180821093703 73 171 5.0 10.0 0.00 0.00 0.00 73 1021.6
20180821092703 73 120 6.0 10.0 0.00 0.00 0.00 74 1021.7
20180821091702 71 138 0.0 7.0 0.00 0.00 0.00 75 1021.7
20180821090703 71 169 1.0 9.0 0.00 0.00 0.00 75 1021.7
20180821085702 71 151 3.0 8.0 0.00 0.00 0.00 77 1021.7
20180821084703 70 77 1.0 6.0 0.00 0.00 0.00 79 1021.7
20180821083703 69 181 1.0 7.0 0.00 0.00 0.00 80 1021.7
20180821082704 68 127 1.0 8.0 0.00 0.00 0.00 81 1021.7
20180821081702 68 144 3.0 8.0 0.00 0.00 0.00 84 1021.7
20180821080702 67 112 0.0 3.0 0.00 0.00 0.00 86 1021.8
20180821075702 67 124 0.0 6.0 0.00 0.00 0.00 90 1021.9
20180821074703 66 114 0.0 6.0 0.00 0.00 0.00 92 1021.8
20180821073703 65 94 1.0 3.0 0.00 0.00 0.00 94 1021.8
20180821072703 64 104 0.0 3.0 0.00 0.00 0.00 94 1021.8
20180821071703 64 146 0.0 3.0 0.00 0.00 0.00 95 1021.8
20180821070703 64 111 0.0 7.0 0.00 0.00 0.00 96 1021.7
20180821065702 63 150 0.0 3.0 0.00 0.00 0.00 96 1021.7
20180821064703 63 108 2.0 3.0 0.00 0.00 0.00 96 1021.7
20180821063703 62 104 0.0 0.0 0.00 0.00 0.00 96 1021.7
20180821062703 62 104 0.0 3.0 0.00 0.00 0.00 96 1021.6
20180821061703 62 104 1.0 3.0 0.00 0.00 0.00 96 1021.6
20180821060703 61 68 0.0 1.0 0.00 0.00 0.00 96 1021.7
20180821055704 61 68 0.0 0.0 0.00 0.00 0.00 96 1021.7
20180821054703 61 103 0.0 0.0 0.00 0.00 0.00 96 1021.7
20180821053703 61 103 0.0 1.0 0.00 0.00 0.00 96 1021.5
20180821052703 61 201 0.0 0.0 0.00 0.00 0.00 96 1021.4
20180821051703 60 224 0.0 0.0 0.00 0.00 0.00 96 1021.3
20180821050703 60 224 0.0 0.0 0.00 0.00 0.00 96 1021.2
20180821045703 60 224 0.0 0.0 0.00 0.00 0.00 95 1021.1
20180821044703 60 224 0.0 0.0 0.00 0.00 0.00 95 1021.1
20180821043704 60 224 0.0 0.0 0.00 0.00 0.00 95 1021.1
20180821042703 61 224 0.0 0.0 0.00 0.00 0.00 95 1021.0
20180821041703 61 224 0.0 0.0 0.00 0.00 0.00 95 1020.9
20180821040703 61 253 0.0 1.0 0.00 0.00 0.00 95 1020.9
20180821035703 61 253 0.0 0.0 0.00 0.00 0.00 95 1020.9
20180821034704 61 253 0.0 0.0 0.00 0.00 0.00 95 1020.9
20180821033703 60 253 0.0 0.0 0.00 0.00 0.00 95 1020.9
20180821032703 60 253 0.0 0.0 0.00 0.00 0.00 95 1020.9
20180821031704 61 253 0.0 0.0 0.00 0.00 0.00 95 1020.9
20180821030704 61 336 0.0 0.0 0.00 0.00 0.00 95 1020.9
20180821025703 61 336 0.0 0.0 0.00 0.00 0.00 95 1021.0
20180821024704 61 336 0.0 0.0 0.00 0.00 0.00 95 1021.1
20180821023703 61 336 0.0 0.0 0.00 0.00 0.00 95 1021.0
20180821022703 61 336 0.0 0.0 0.00 0.00 0.00 95 1021.0
20180821021704 61 336 0.0 0.0 0.00 0.00 0.00 95 1021.1
20180821020703 61 336 0.0 0.0 0.00 0.00 0.00 95 1021.1
20180821015704 60 336 0.0 0.0 0.00 0.00 0.00 95 1021.1
20180821014704 60 336 0.0 0.0 0.00 0.00 0.00 95 1021.1
20180821013704 60 336 0.0 0.0 0.00 0.00 0.00 95 1021.0
20180821012704 60 336 0.0 0.0 0.00 0.00 0.00 94 1021.0
20180821011704 60 336 0.0 0.0 0.00 0.00 0.00 94 1021.1
20180821010704 60 336 0.0 0.0 0.00 0.00 0.00 94 1021.3
20180821005704 59 336 0.0 0.0 0.00 0.00 0.00 94 1021.2
20180821004704 59 336 0.0 0.0 0.00 0.00 0.00 94 1021.0
20180821003704 59 336 0.0 0.0 0.00 0.00 0.00 94 1021.0
20180821002704 59 336 0.0 0.0 0.00 0.00 0.00 93 1021.0
20180821001704 59 336 0.0 0.0 0.00 0.00 0.00 93 1021.0
20180821000704 59 336 0.0 0.0 0.00 0.00 0.00 92 1020.9
20180820235704 59 336 0.0 0.0 0.00 0.00 0.00 93 1020.9